sat.trackr.live / text

‹ back to catalog

STARLINK-3558

NORAD 52119 · 2022-029AH

PAYLOAD ACTIVE UNKNOWN

§ Identity

Operator
Country
US
Launch date
2022-03-19
Launch site
AFETR
Launch vehicle
Mass (kg)
RCS (m²)

Purposes: comms

External: N2YO · Heavens-Above · Gunter

§ Orbital elements

Epoch: 2026-05-25T03:49:32.927232Z

Period
95.44 min
Inclination
53.2138°
Eccentricity
0.0001474
Mean motion
15.08835173 rev/d
Perigee alt
538.7 km
Apogee alt
540.8 km
Semi-major
6,917.9 km
B*
5.4943e-5
RAAN
95.8344°
Arg perigee
85.1483°
Mean anomaly
274.9678°
Rev number
23,233

§ Raw data

STARLINK-35581 52119U 22029AH  26145.15940888  .00000586  00000+0  54943-4 0  99912 52119  53.2138  95.8344 0001474  85.1483 274.9678 15.08835173232337

JSON: /api/v1/satellites/52119 · /tle

For live sub-satellite position, see the globe view (requires WebGL).

§ Visibility from observer

Set your observer location to see the next 7 days of passes ≥ 10°. The values pass through the URL so the page stays shareable.

No JS? Fill the form by hand. The geolocation button needs JavaScript.